User: anonymous   Login
Location: Unspecified
(0.0000°N, 0.0000°E)
Time: 19:22:57
(UTC+00:00)
Language:

OBJECT C - Orbit

View from above orbital plane
View from above orbital plane
View from above satellite
View from above satellite

Ground track
Ground track

The orbit is defined by the following mean orbital elements,

1 57168U          26145.61144692 +.00000000 +00000-0 +33441-3 0 00009
2 57168  97.5039 207.8366 0011625 178.2984 181.8296 15.26105478    02
Epoch (UTC): 25 May 2026 14:40:29
Eccentricity: 0.0011625
inclination: 97.5039°
perigee height: 479 km
apogee height: 495 km
right ascension of ascending node: 207.8366°
argument of perigee: 178.2984°
revolutions per day: 15.26105478
mean anomaly at epoch: 181.8296°

The dashed part of the orbit path shows where the satellite is in the earth's shadow,  

DLR